Regional Weather Roundup
Issued by NWS Wakefield, VA

Home | Current Version | Previous Version | Text Only | Print | Product List | Glossary Off
Versions: 1 2 3 4 5 6 7 8 9 10 11 12 13 14 15 16 17 18 19 20 21 22 23 24 25 26 27 28 29 30 31 32 33 34 35 36 37 38 39 40 41 42 43 44 45 46 47 48 49 50

847
ASUS41 KAKQ 240615
RWRAKQ

REGIONAL WEATHER ROUNDUP
NATIONAL WEATHER SERVICE WAKEFIELD VA
100 AM EST TUE JAN 24 2017

Note: "fair" indicates few or no clouds below 12,000 feet with no
significant weather and/or obstructions to visibility. * = Denotes
station may not report precipitation (e.g., rain,snow,etc.),
thunder or fog.

VAZ042-051-052>054-056-240700-
NORTHERN VIRGINIA

CITY           SKY/WX    TMP DP  RH WIND       PRES   REMARKS
WASH NATIONAL  LGT RAIN  39  37  92 N15       29.47F
DULLES         LGT RAIN  36  34  92 N13       29.49F FOG
FORT BELVOIR   LGT RAIN  39  36  87 NW9       29.47F
QUANTICO       LGT RAIN  39  38  96 N14G25    29.48F
FREDERICKSBRG* DRIZZLE   38  38 100 N15       29.47S
STAFFORD*      RAIN      36  36 100 NW13      29.51F
WARRENTON      DRIZZLE   38  34  87 NW10      29.49S
CULPEPER*      DRIZZLE   38  36  94 N12G18    29.51S
MANASSAS*      NOT AVBL
LEESBURG*      LGT RAIN  37  37 100 NW10      29.52S
WINCHESTER     LGT SNOW  32  32 100 NW8       29.54S
FRONT ROYAL*   CLOUDY    34  32  93 NW3       29.53F
LURAY*         DRIZZLE   34  34 100 CALM      29.53F
$$

VAZ048-049-060>072-079>083-240700-
CENTRAL AND SOUTH CENTRAL VIRGINIA

CITY           SKY/WX    TMP DP  RH WIND       PRES   REMARKS
RICHMOND       LGT RAIN  39  38  96 N17       29.42F
CHESTERFIELD*  CLOUDY    39  23  52 N12       29.44F
PETERSBURG*    NOT AVBL
HANOVER        CLOUDY    39  39 100 NW9       29.45F
TAPPAHANNOCK*  CLOUDY    39  39 100 N9G18     29.41F
QUINTON*       CLOUDY    39  39 100 NW10G16   29.41F
CHARLOTTSVILLE CLOUDY    39  35  86 NW5       29.48F
GORDONSVILLE*  CLOUDY    38  35  89 N7        29.48F
ORANGE*        DRIZZLE   37  36  93 NW8       29.50F
LOUISA*        CLOUDY    39  37  93 N10G20    29.46F
BUMPASS*       CLOUDY    37  37 100 NW8       29.47S
FARMVILLE*     CLOUDY    40  38  93 CALM      29.47F
CREWE*         CLOUDY    38  38 100 NW14G20   29.46S
FORT PICKETT*  CLOUDY    37  34  88 NW14G20   29.44F
CHASE CITY*    CLOUDY    39  37  94 NW7       29.48R
CLARKSVILLE*   CLOUDY    39  37  93 NW7       29.48S
SOUTH HILL*    CLOUDY    38  37  94 NW7G20    29.51R
LAWRENCEVILLE* CLOUDY    39  37  92 NW9G16    29.44R
EMPORIA*       CLOUDY    39  37  93 W8G18     29.43F
$$

VAZ088>098-240700-
SOUTHEAST VIRGINIA

CITY           SKY/WX    TMP DP  RH WIND       PRES   REMARKS
NORFOLK        CLOUDY    44  41  89 N10G21    29.33S
VIRGINIA BEACH LGT RAIN  43  41  93 NW18G31   29.32S FOG
NORFOLK NAVAL  LGT RAIN  44  40  85 NW23G30   29.35S
WEST POINT*    CLOUDY    39  38  97 NW8       29.40F
SALUDA*        CLOUDY    40  39  99 NW13G22   29.37S
NEWPORT NEWS   CLOUDY    42  39  89 NW15G23   29.36R
LANGLEY AFB    CLOUDY    42  41  97 N14G23    29.34S
FORT EUSTIS    NOT AVBL
WILLIAMSBURG*  CLOUDY    41  41 100 N10G23    29.39R
HR EXEC AP*    CLOUDY    43  39  87 NW7G22    29.34S
FRANKLIN*      CLOUDY    41  38  89 NW10G18   29.40R
US460-WAKEFLD  CLOUDY    41  38  89 N10G24    29.39S
$$

VAZ020-022-025-037-045-240700-
WEST CENTRAL AND SOUTHWEST VIRGINIA

CITY           SKY/WX    TMP DP  RH WIND       PRES   REMARKS
STAUNTON*      CLOUDY    34  32  93 N8        29.53F
WAYNESBORO*    CLOUDY    33  32  96 N3        29.51F
HOT SPRINGS VA FOG       25  25 100 NW8       29.43F VSB 1/2
LYNCHBURG      CLOUDY    38  32  79 VRB7      29.50F
DANVILLE       PTCLDY    40  39  97 W6        29.51S
SOUTH BOSTON*  CLOUDY    41  39  91 NW6       29.49S
MARTINSVILLE   CLOUDY    40  37  89 CALM      29.54S
ROANOKE        CLOUDY    39  35  86 N7        29.54S
BLACKSBURG     DRIZZLE   38  37  96 NW3       29.54S
DUBLIN*        LGT RAIN  40  39  97 CALM      29.53S
MARION*        LGT RAIN  43  40  89 W21G28    29.54S
HILLSVILLE*    DRIZZLE   41  40  97 NW6       29.49S
RICHLANDS*     RAIN      40  40 100 NW7       29.57S
WISE*          LGT RAIN  41  41 100 W14G21    29.62R
ABINGDON*      DRIZZLE   46  44  91 NW10G18   29.59S
$$

MDZ021>025-VAZ099-100-240700-
SOUTHERN MARYLAND AND THE DELMARVA PENINSULA

CITY           SKY/WX    TMP DP  RH WIND       PRES   REMARKS
PATUXENT RIVER LGT RAIN  39  38  96 N21       29.39F FOG
BAY BRIDGE APT CLOUDY    39  36  87 N13G25    29.43S FOG
LEONARDTOWN    CLOUDY    37  36  93 NW9G17    29.42F
DOVER          CLOUDY    40  40 100 N18       29.35F
GEORGETOWN     CLOUDY    42  39  89 N14G24    29.33F
EASTON         CLOUDY    40  37  86 N17       29.42F
CAMBRIDGE      CLOUDY    37  36  93 NW13      29.37S
SALISBURY      CLOUDY    42  40  92 N15G23    29.31F
OCEAN CITY     CLOUDY    43  41  93 N20G35    29.28F
WALLOPS ISLAND CLOUDY    44  43  96 N15       29.30S
ACCOMACK*      DRIZZLE   45  44  97 NW13G18   29.31S
$$

NCZ012>017-030>032-240700-
NORTH CENTRAL AND EASTERN NORTH CAROLINA

CITY           SKY/WX    TMP DP  RH WIND       PRES   REMARKS
ROANOKE RAPIDS DRIZZLE   41  39  93 N12       29.43S
RALEIGH        LGT RAIN  43  36  76 NW9       29.49S
ELIZABETH CITY CLOUDY    47  44  90 NW17G23   29.33S
AHOSKIE*       DRIZZLE   41  40  95 NW5       29.41F
EDENTON*       CLOUDY    47  44  90 NW12      29.37S
CURRITUCK*     CLOUDY    46  46 100 NW10G17   29.33R FOG
KILL DEVIL HLS NOT AVBL
MANTEO         CLOUDY    48  47  97 N14G22    29.32R
CAPE HATTERAS  CLOUDY    52  49  89 NW15G22   29.31R FOG
TARBORO*       NOT AVBL
GOLDSBORO      CLOUDY    46  43  87 NW12G20   29.43R
WASHINGTON     CLOUDY    46  42  86 NW8         N/A
GREENVILLE     CLOUDY    45  41  87 NW10G22   29.46R
NEW BERN       CLOUDY    49  44  83 NW12G18   29.39S
WILMINGTON     CLOUDY    51  50  96 NW14      29.44R
$$

VAZ048-240700-
ELSEWHERE

CITY           SKY/WX    TMP DP  RH WIND       PRES   REMARKS
HARRISBURG PA  DRIZZLE   39  35  86 VRB7      29.50F
BALTIMORE      DRIZZLE   38  36  92 N9        29.45S
ANNAPOLIS      CLOUDY    41  36  82 N16       29.42F
ANDREWS AFB    CLOUDY    37  36  93 NW13      29.44S
PHILADELPHIA   CLOUDY    39  35  86 N18G31    29.39F
HENDERSON NC   CLOUDY    37  34  88 N10       29.47S
GREENSBORO     LGT RAIN  42  40  92 N3        29.51S
ROCKY MOUNT    CLOUDY    43  38  82 NW17G23   29.45R
$$

VAZ100-240700-
MARINE

STATION/POSITION TIME  TEMP    WIND        PRES    WAVE   SWELL
                       AIR SEA DIR/SP/G            HT/PER HT/PER
                 (UTC) (F)     (DEG/KT/KT) (MB)    (FT/S) (FT/S)
CAPE MAY NJ      0548   42 44   10/  4/ 11  992.1R
LEWES DE         0548           10/ 20/ 24  992.8F
OCEAN-CITY-INLET 0548           30/ 19/ 28  991.9F
WACHAPREAGUE VA  0548   45 49  320/  6/ 11  992.4R
THOMAS POINT MD  0600   39 40  360/ 20/ 23   N/A
GOOSES REEF MD   0550   39     340/ 19/ 23  997.1S
COVE POINT MD    0548   38     360/ 24/ 31  995.9F
SOLOMONS ISLAND  0548          340/ 14/ 20   N/A
BISHOPS HEAD MD  0548   40 45  330/ 14/ 19  994.3F
PINEY POINT MD   0548          350/ 19/ 21   N/A
POTOMAC MD       0550   39     340/ 14/ 17  994.2F
CAMBRIDGE MD     0548   40 42  340/ 14/ 18  994.0F
LEWISETTA VA     0548   40 45  350/ 16/ 21  995.2F
RAPPAHANNOCK LGT 0548          330/ 30/ 33  993.4S
STINGRAY PT      0550   40     340/ 19/ 23  994.2F
YORK RVR RNG VA  0548   42     350/ 24/ 29  993.1S
YORKTOWN VA      0548   42 45  330/ 16/ 20  993.9R
JAMESTOWN VA     0550   41     320/ 16/ 19   N/A
DOMINION TERM VA 0548   43     340/ 20/ 31  993.9R
CHES BAY BRIDGE  0542   42 46  330/ 27/ 31  993.0R
CAPE HENRY VA    0542   43     310/ 25/ 30   N/A
WILLOUBY STN VA  0542   43     330/ 21/ 25  994.4R
S CRANEY ISL VA  0548   44     330/ 12/ 16  993.4R
CAPE HENRY BUOY  0542      47                N/A     8/12   5/12
OFFSHORE WE BUOY 0551      47                N/A    10/13   7/13
64NM E OF VA BCH 0550   49 53  280/ 17/ 23  989.0F  12/12  11/12
DUCK PIER NC     0542   48 46  320/ 21/ 27  991.2F
44100 DUCK FRF   0535      50                N/A     9/13   7/13
44056 DUCK FRF   0530      47                N/A     8/11   5/11
OREGON INLET NC  0542   49 50  300/ 18/ 22  991.8R
HATTERAS NC      0548          300/ 23/ 26  992.1R
DIAMOND SHLS NC  0550   56 75  310/ 25/ 29  991.5R   9/11   7/11
CAPE LOOKOUT NC  0500   54     290/ 18/ 25  993.5R
$$




USA.gov is the U.S. government's official web portal to all federal, state and local government web resources and services.